Find WHDW 02-04

NORAD ID: 62974 Int'l Des: 2025-030 Owner: ZXW Country: CN Constellation: xingwang operational
LEOCIRCULAR

リアルタイム位置

3D地球を読み込み中...

WHDW 02-04について

説明を読み込み中...

次回通過

Passes for default location (London). Set your location on the main map for personalized predictions.

高度履歴

Loading altitude history...

軌道要素

1 62974U 25030D 26104.97593803 -.00000080 00000-0 95602-4 0 9990
2 62974 50.0016 102.3339 0001051 304.9932 55.0841 13.29325666 57457
Epoch: Apr 14, 2026 • Age: 7 hours

現在のステータス

高度 1165.7 km
速度 7.27 km/s
衛星直下点 -49.97°S, 81.13°E
打ち上げ日 Feb 11, 2025
運用期間 1.1 years
タイプ other

技術仕様

分類 Payload
質量 700.00 kg
乾燥質量 700.00 kg
総質量 700.00 kg
長さ 3.00 m
直径 1.00 m
スパン 10.00 m
形状 Box + 2 Pan
製造者 CAST
バスタイプ Xingwang C
フェーズステータス In Orbit
所有者/国 ZXW/CN

Most Searched